Temp
21 20 21 21 20 20 20 20 19 19 20 20 20 20 20 19 19 19 19 19 19 18 18 18 19 18 19 19 18 18 19 19 19 19 19 18 18 18 18 19 19 20 18
20 21 21 21 21 20 20 20 19 20 20 20 20 19 19 19 19 19 19 19 18 18 18 18 18 18 18 18 19 18 19 19 19 19 19 19 18 18 18 19 18 18 17
21 21 21 21 21 21 20 20 20 21 20 20 20 19 19 19 19 18 18 18 18 18 18 19 19 18 19 18 19 19 19 19 19 19 19 20 19 18 18 18 18 17 17
20 21 20 21 21 20 20 20 20 20 20 20 20 19 19 19 18 19 18 18 18 18 19 19 19 19 19 19 19 19 19 18 18 19 20 21 20 18 18 17 17 17 17
20 20 20 20 20 20 20 20 20 20 20 20 20 19 19 19 19 19 19 18 18 18 18 19 19 19 19 19 19 19 19 19 19 19 20 20 20 18 18 17 17 17 17
20 19 19 19 20 20 19 20 20 20 20 20 20 19 19 19 19 19 19 19 19 18 18 19 19 19 19 19 18 18 18 19 19 20 20 19 19 19 17 17 18 17 17
19 18 18 19 19 19 19 19 19 19 19 19 19 19 19 19 19 19 19 19 19 19 19 18 19 19 19 19 18 18 18 18 18 20 20 20 19 18 17 17 17 16 16
18 17 17 19 19 19 19 19 19 19 19 19 19 19 19 19 19 19 19 19 19 19 19 18 18 19 19 19 18 18 18 18 18 20 20 19 19 18 17 17 17 16 16
16 17 17 17 19 19 19 19 18 18 19 19 19 19 19 19 19 19 19 19 19 19 19 19 18 18 18 19 18 18 18 18 19 20 20 19 19 18 17 17 16 16 16
16 16 16 16 16 17 17 19 19 19 19 18 19 19 19 19 19 19 19 19 19 19 19 19 18 18 18 18 18 18 18 18 18 20 19 20 18 18 17 17 17 16 16
16 15 15 15 15 16 16 17 18 19 19 19 18 18 18 18 20 20 19 19 19 19 19 19 18 18 18 18 18 18 18 18 19 20 20 19 19 19 18 17 17 17 16
15 14 14 15 16 15 15 16 16 16 17 17 17 17 17 17 18 18 19 18 18 18 18 18 18 18 18 18 19 18 17 19 20 20 20 19 19 19 18 17 17 17 16
13 14 13 13 14 14 14 15 16 16 16 16 16 17 17 18 18 17 18 18 18 19 18 19 19 18 19 18 19 19 19 20 20 20 20 18 19 19 18 17 17 17 17
13 13 12 12 12 13 12 13 14 14 15 15 16 16 16 17 18 18 17 17 18 18 18 19 19 20 20 20 19 19 19 19 20 20 20 19 19 19 18 17 17 17 17
14 13 12 11 12 12 12 12 13 13 14 14 14 14 15 16 17 18 18 18 17 17 17 18 18 18 19 19 20 19 19 19 19 20 20 19 18 19 19 18 17 17 17
13 12 12 11 11 11 11 11 11 12 12 12 13 13 13 14 15 16 17 18 18 18 17 17 17 17 17 17 17 18 19 19 19 19 19 19 19 18 19 19 18 17 17
13 12 11 11 10 10 10 10 10 11 11 11 12 12 12 12 13 14 15 17 18 18 17 17 17 16 17 17 17 17 17 17 19 19 19 19 19 18 19 19 19 18 17
12 12 11 10 10 11 10 10 10 10 11 11 11 12 11 11 12 12 14 15 16 17 17 18 17 17 16 16 16 17 16 17 17 17 18 19 19 19 19 18 19 19 19
12 11 11 10 10 10 10 10 10 10 10 11 11 11 11 11 11 12 13 13 14 15 16 17 17 17 17 16 16 16 16 17 17 16 16 17 18 18 18 19 18 19 19
11 10 10 10 10 10 9 9 10 11 11 11 11 11 11 11 11 12 12 13 13 14 15 16 16 17 17 18 17 17 17 16 17 17 17 16 17 18 18 18 18 17 18
11 10 10 10 10 10 9 8 9 9 11 11 11 11 11 11 11 12 12 13 13 14 15 15 16 16 16 17 17 17 17 17 17 17 17 16 16 16 17 17 17 17 17
11 10 10 9 10 10 9 8 9 8 9 10 10 10 10 10 11 12 12 13 13 13 14 15 15 16 16 16 17 17 18 19 20 18 17 16 16 16 17 17 16 16 16
11 10 9 9 9 9 8 9 9 9 9 9 8 8 8 8 9 9 10 10 11 12 13 14 14 15 15 16 16 17 17 18 20 19 18 17 17 16 16 16 16 15 15
10 9 8 8 8 8 8 9 9 8 8 8 8 7 7 7 7 7 8 8 8 9 10 10 12 13 14 15 15 16 16 16 16 17 18 17 15 16 16 16 16 15 15
9 9 8 8 8 7 7 7 8 8 8 8 8 8 8 8 7 6 7 7 7 8 8 8 9 9 11 13 14 15 15 16 16 16 16 18 18 18 17 16 17 16 16
9 8 8 8 7 7 7 7 7 7 7 8 7 7 7 7 6 6 6 6 6 6 6 6 7 8 9 10 10 11 13 15 16 17 17 17 18 18 18 17 16 15 14
Height
822 822 822 821 822 822 823 823 823 823 823 823 823 822 823 823 823 823 822 822 822 822 823 823 823 823 822 822 822 822 821 821 821 821 821 821 821 821 820 820 820 821 820
822 821 821 821 822 823 823 823 824 824 824 824 823 824 823 823 823 823 823 823 823 823 823 823 824 823 823 823 823 823 822 822 822 822 822 822 822 821 821 821 821 821 821
824 823 823 821 822 823 823 823 825 825 824 825 824 824 824 824 824 824 824 823 823 824 824 823 824 824 824 824 823 823 823 822 822 822 823 824 823 823 822 822 822 822 822
824 823 822 822 823 823 824 825 825 825 825 825 825 825 825 825 825 824 824 824 824 825 824 824 823 823 823 824 824 823 823 823 823 823 824 824 824 823 823 823 823 823 823
826 824 823 823 824 824 824 824 825 825 825 825 825 825 825 825 825 825 824 824 824 824 824 824 823 823 823 823 823 823 823 823 824 824 824 824 824 823 823 824 824 823 823
827 827 824 824 824 824 824 825 825 825 824 825 825 824 824 824 824 824 824 824 824 824 823 823 823 822 822 822 823 823 823 823 823 825 825 824 824 823 823 823 823 823 823
828 828 827 826 825 825 824 824 824 824 824 824 824 824 824 823 823 823 823 823 822 822 822 822 822 822 822 822 822 822 822 823 824 824 824 824 824 823 823 823 823 823 823
830 829 828 827 826 825 825 824 823 823 823 823 823 823 822 822 822 822 821 821 821 820 820 820 820 820 820 820 821 821 821 822 823 823 823 823 822 821 822 822 822 822 823
830 830 829 828 827 826 825 824 823 822 821 821 820 820 820 820 820 820 820 819 819 819 818 818 819 819 819 819 819 820 820 820 821 821 821 821 820 820 821 821 821 821 822
830 830 829 828 828 827 826 824 823 822 820 819 819 818 817 817 817 816 816 816 816 816 817 817 817 817 816 817 817 817 818 818 819 819 818 818 817 818 818 819 820 820 821
832 830 829 828 827 826 825 823 821 820 819 818 817 816 815 815 815 814 814 814 813 813 813 813 814 814 815 815 814 814 815 816 816 816 815 814 814 814 815 817 817 818 818
833 832 830 828 826 825 824 822 821 819 817 816 815 814 813 812 811 810 810 810 810 810 810 810 810 810 811 812 811 811 812 812 813 812 811 810 810 811 812 812 814 815 816
832 832 830 827 825 823 822 820 820 817 816 814 813 811 810 809 809 807 806 806 805 806 806 806 806 806 807 807 807 808 808 809 808 808 807 806 807 807 808 809 810 811 812
831 831 829 826 824 822 820 818 816 815 813 811 809 807 807 806 805 804 802 801 800 801 802 802 802 801 801 802 803 803 803 804 804 803 802 801 801 803 804 804 805 806 807
831 830 828 825 823 821 818 816 814 812 810 807 805 804 803 802 801 800 799 798 796 795 796 796 797 797 797 798 798 798 798 798 798 798 798 796 795 796 797 799 800 801 802
831 829 827 824 822 819 816 813 811 808 806 804 802 800 799 798 797 796 795 794 793 793 792 791 790 791 791 792 792 792 792 792 792 792 792 792 790 790 791 792 794 795 797
830 828 826 823 820 818 814 812 809 806 803 801 799 797 795 794 793 792 791 790 789 789 788 787 786 786 786 786 785 786 786 786 786 785 785 785 785 784 784 784 786 787 789
828 827 824 822 819 816 813 810 807 804 802 799 797 795 793 791 789 788 787 786 785 785 784 783 783 782 780 780 779 779 778 779 778 778 779 778 778 778 777 776 778 779 780
827 826 824 821 818 815 812 809 806 803 800 797 795 793 791 788 786 785 783 782 782 781 780 779 778 778 777 776 774 773 772 771 771 770 771 771 771 771 771 770 769 770 772
826 824 823 820 818 815 811 808 805 803 800 797 795 793 790 787 785 783 781 779 779 778 776 775 774 774 772 771 770 768 767 765 764 763 764 764 764 764 763 763 764 762 762
825 823 821 819 817 814 811 808 806 803 800 798 795 792 789 786 783 781 779 777 776 774 773 773 772 770 769 769 766 763 759 758 757 756 756 755 754 755 756 755 754 754 754
822 821 819 817 815 813 811 808 806 803 800 798 795 792 789 786 783 781 778 776 774 772 770 770 769 767 766 765 763 760 753 749 746 747 747 747 746 747 747 747 747 747 747
819 818 816 815 813 812 809 807 805 802 800 798 795 791 789 785 782 780 778 776 774 772 770 768 766 764 762 761 760 758 751 743 741 741 740 741 741 740 740 740 740 739 739
817 816 815 814 812 810 808 807 805 803 802 799 796 793 789 786 783 780 778 776 773 772 770 768 766 763 760 758 756 754 752 750 747 740 738 736 735 735 734 734 734 732 731
816 815 814 813 811 810 808 806 805 803 802 799 797 794 791 787 785 781 778 775 772 771 769 768 766 763 761 758 755 752 749 746 745 741 731 729 728 728 728 728 725 725 722
815 814 813 812 811 809 807 806 804 803 801 798 796 793 791 788 784 781 778 775 772 770 768 766 764 763 761 759 757 755 750 745 741 737 728 726 724 721 723 721 721 718 716
Wind_Speed
3 8 3 2 5 5 5 7 6 5 5 4 4 4 5 5 5 4 3 2 3 4 4 3 3 3 5 6 6 5 5 5 6 8 8 7 8 8 7 7 9 5 7
7 7 6 2 6 5 6 6 6 5 4 4 4 4 3 3 3 3 3 3 4 4 5 4 3 3 4 4 5 5 5 5 6 7 6 6 6 6 5 5 8 5 6
7 8 7 3 5 5 6 5 5 5 4 4 4 3 3 3 3 3 4 5 5 5 4 5 5 4 4 6 4 4 5 5 6 8 7 4 5 3 2 2 4 5 4
9 7 12 1 3 4 5 5 5 5 5 4 4 4 3 3 3 3 5 6 5 5 4 6 6 4 5 5 4 4 6 7 7 7 4 4 5 5 1 2 3 4 4
11 10 10 7 3 1 3 4 5 6 6 5 5 4 5 4 4 4 5 7 7 7 9 7 5 6 6 5 5 4 5 7 7 5 4 5 5 5 2 3 2 3 5
12 13 10 6 4 2 0 2 4 6 7 7 7 7 6 6 6 6 6 7 8 8 9 10 7 7 9 8 7 7 6 7 7 6 6 6 3 5 3 4 6 5 4
11 11 12 9 6 4 1 2 3 5 7 9 9 9 10 9 8 9 9 8 9 10 10 13 9 8 9 10 11 10 9 8 7 7 7 7 6 7 5 6 5 5 5
11 11 11 10 10 8 5 3 3 5 6 8 10 11 12 12 12 10 11 12 12 12 12 13 12 11 10 11 13 13 12 11 10 11 10 9 10 8 7 8 7 6 6
11 11 12 11 10 8 7 6 4 4 7 8 9 11 12 13 14 15 14 13 14 15 15 15 14 13 12 13 14 16 15 14 11 12 13 12 13 11 9 10 9 9 8
11 11 12 12 11 11 9 8 7 7 6 7 9 11 13 14 16 16 16 16 16 16 17 17 17 17 15 14 15 18 18 17 14 14 14 14 17 13 11 12 12 11 11
10 11 12 12 12 12 10 11 10 10 10 9 9 11 12 12 14 16 17 18 19 18 17 18 19 19 18 17 17 19 20 17 17 17 16 17 19 16 15 14 15 14 14
10 11 12 13 13 13 11 12 11 11 11 11 10 10 9 11 14 17 17 19 20 21 20 20 20 20 20 18 16 19 20 19 19 20 19 21 20 19 18 17 18 18 16
8 9 11 13 14 13 13 14 11 12 12 11 12 11 12 12 12 12 18 18 16 19 20 19 18 18 20 20 19 18 18 20 21 20 21 25 24 23 22 20 20 22 20
8 9 11 12 13 13 14 12 13 13 13 13 13 14 12 13 14 14 15 18 21 17 19 19 18 19 20 20 20 20 20 21 21 22 22 25 26 27 26 23 23 23 24
7 10 12 13 13 13 14 13 14 14 15 15 16 15 14 15 16 16 16 16 18 19 19 21 21 20 20 22 23 23 23 23 24 24 23 24 28 28 29 28 25 25 26
7 10 12 13 12 14 13 14 14 14 15 15 16 16 16 16 17 17 19 19 18 18 18 18 22 24 25 23 22 23 26 25 25 25 25 25 27 28 31 32 31 28 28
8 10 12 12 12 13 13 13 13 13 14 14 15 15 15 16 17 19 19 20 20 19 18 19 19 21 25 25 26 24 25 26 28 27 27 27 26 27 31 34 34 34 32
9 11 12 11 12 13 14 13 13 14 14 14 14 15 15 16 16 17 19 20 19 20 20 19 19 19 21 24 25 26 26 27 26 30 30 29 28 27 27 30 37 38 39
8 10 11 11 12 14 14 13 14 14 13 13 13 13 14 15 15 15 16 18 18 18 19 19 21 20 21 21 22 25 28 27 28 28 31 31 29 29 28 28 32 37 42
7 7 8 10 11 13 12 14 13 13 12 12 12 13 15 14 14 13 13 14 14 16 17 18 19 20 22 22 23 24 26 28 29 28 29 30 33 30 30 30 29 30 38
5 6 7 10 10 12 12 13 12 14 14 13 13 15 15 14 13 11 11 12 12 14 16 16 17 18 20 20 22 23 25 26 30 30 31 31 31 35 34 32 31 32 32
5 6 8 9 10 10 10 10 10 13 10 12 14 14 15 15 14 12 11 11 10 11 11 13 15 17 18 17 19 19 12 19 23 25 28 29 31 29 31 31 30 31 30
4 7 8 8 8 9 10 10 11 10 11 10 16 17 16 15 13 14 13 11 11 11 11 12 14 16 18 16 16 14 7 9 10 16 13 20 21 21 23 25 26 27 36
3 6 7 8 9 9 10 10 11 11 12 13 13 15 14 14 14 15 15 15 15 15 12 13 14 15 16 17 16 17 20 21 11 11 20 16 17 20 25 25 25 28 30
2 5 6 6 7 8 8 8 8 8 9 11 13 14 13 12 13 16 15 14 13 12 14 15 17 16 15 17 17 18 20 22 22 12 13 15 21 24 25 27 30 31 34
3 2 2 3 4 6 7 8 8 8 9 10 12 12 14 13 12 14 15 15 14 14 14 14 14 14 15 15 17 19 21 18 16 16 13 13 16 24 24 25 25 26 28
Wind_Direction
351 346 352 231 203 198 183 177 163 161 165 165 166 165 171 180 188 191 176 161 142 142 162 152 131 76 130 136 143 140 132 150 125 133 126 120 115 113 109 105 81 98 99
354 348 351 250 199 207 200 188 185 180 185 183 178 180 181 180 175 174 171 156 140 145 156 162 144 131 132 143 147 152 171 146 141 140 129 123 136 126 109 106 114 126 122
3 2 352 243 202 209 205 205 204 205 199 202 189 187 186 183 186 181 177 166 152 157 163 189 164 154 152 170 173 182 182 166 155 156 137 157 160 143 106 95 118 118 125
25 31 22 84 192 210 211 213 216 219 226 226 205 201 203 204 209 199 190 185 176 186 186 167 173 180 182 190 195 189 183 183 174 172 181 191 188 188 216 139 134 139 137
41 37 50 79 97 194 229 223 226 233 232 237 235 229 220 219 224 219 207 204 207 213 212 213 217 217 209 204 201 196 196 201 207 197 212 199 203 185 224 172 173 167 152
44 40 48 64 79 94 35 279 264 254 252 248 240 247 234 231 229 232 232 220 222 226 223 224 239 241 227 215 207 223 221 212 206 213 209 214 220 244 220 224 209 208 190
41 38 40 52 61 58 355 271 263 272 270 267 260 252 248 246 238 231 240 238 239 240 238 226 244 249 235 224 213 225 223 214 213 223 225 230 236 243 226 241 232 215 208
44 34 34 38 41 36 26 351 284 272 266 267 271 264 260 251 251 245 242 243 246 245 239 231 244 249 244 231 220 227 225 226 234 238 239 243 239 243 229 229 232 228 222
43 36 28 22 19 14 4 358 337 293 270 267 264 263 263 260 254 256 256 253 252 248 246 243 245 248 248 242 229 228 231 233 230 237 239 246 251 249 234 233 235 233 228
38 30 23 17 10 4 358 333 328 318 301 284 274 264 261 255 256 256 254 256 253 254 253 252 251 247 247 246 241 232 235 238 240 243 240 238 244 249 239 235 237 235 233
26 19 12 6 1 355 347 333 326 314 306 299 292 279 273 269 262 260 258 254 256 257 256 255 253 253 251 252 247 241 239 241 242 242 243 243 245 244 242 236 237 238 236
10 5 360 353 349 344 338 331 326 321 315 313 313 307 301 287 268 256 256 255 260 261 260 258 255 253 254 246 246 246 238 239 243 247 246 245 247 245 243 238 236 240 238
355 349 349 344 338 334 325 321 316 313 308 303 301 301 294 288 282 273 266 261 260 260 256 257 256 249 245 244 243 242 242 242 244 247 250 251 251 247 244 242 236 242 243
349 342 342 341 335 328 321 314 307 302 294 292 286 289 287 282 275 274 274 264 262 257 257 255 252 251 248 247 246 246 246 245 247 249 252 254 253 249 248 243 241 239 246
340 338 340 339 335 329 325 317 310 303 296 290 289 282 279 275 271 269 265 266 263 259 255 256 257 252 252 251 252 252 251 250 250 252 255 257 259 249 248 246 242 242 241
335 336 338 340 336 331 326 320 313 307 301 298 291 287 283 277 271 268 266 264 263 262 261 259 259 261 254 252 252 249 252 255 256 254 256 258 262 258 249 248 245 243 241
336 336 339 339 339 338 333 326 319 313 309 303 299 295 290 282 274 269 267 264 262 263 263 262 262 260 259 255 251 252 255 254 255 255 254 256 257 262 255 248 247 244 240
338 341 341 343 345 343 339 331 325 318 312 306 303 300 297 292 283 275 267 264 264 263 262 262 261 262 262 255 253 252 251 253 256 252 256 255 253 253 257 256 248 248 246
340 341 346 348 349 349 345 340 336 331 329 323 319 316 313 305 290 281 273 268 267 267 264 262 263 263 266 268 265 260 258 254 257 254 253 253 254 252 252 254 256 251 248
339 343 352 356 353 354 356 350 346 344 344 340 335 334 330 322 309 292 282 276 274 269 266 264 264 265 266 268 271 272 269 263 258 252 254 255 251 255 253 252 252 256 253
334 343 348 353 355 360 359 353 344 340 339 341 342 342 340 334 327 317 296 288 282 273 270 269 271 270 269 267 269 271 270 267 261 258 253 253 253 252 253 251 249 247 249
342 351 352 354 356 358 357 349 340 329 327 336 346 349 351 353 349 335 325 313 304 292 281 273 272 274 272 270 270 281 279 275 262 256 254 249 252 254 258 254 252 251 248
347 355 351 354 352 353 352 352 351 349 344 347 351 352 351 1 10 9 4 354 335 316 295 288 282 276 275 271 263 259 282 271 301 289 278 263 261 261 261 258 254 252 251
342 349 351 348 352 354 359 357 357 355 348 342 344 347 353 1 4 3 4 359 356 350 337 323 307 292 281 274 269 259 266 277 280 282 275 282 283 273 269 259 259 254 258
321 349 353 358 4 3 7 8 1 356 344 337 341 342 347 353 0 360 359 354 355 345 337 334 331 326 316 300 285 281 277 276 274 271 278 277 270 264 263 258 255 257 268
237 287 331 356 5 10 15 15 13 4 354 352 351 354 353 353 360 3 3 359 354 349 343 336 328 321 313 309 303 296 287 285 282 285 285 282 280 279 279 270 264 260 257